www.pogodaiklimat.ru

Погода и климат >> Архив погоды >> Россия >> Якутия >> Чумпурук


АРХИВ ПОГОДЫ в Чумпуруке

Время (UTC), дата Ветер
(напр.,м/с)
 
Видим.   Явления Облачность Т
(С)
Тd
(С)
f
(%)
Тe
(С)
Тes
(С)
Комфортность P
(гПа)
Po
(гПа)
Тmin
(С)
Tmax
(С)
R
(мм)
R24
(мм)
S
(см)
18 11.01 штиль 0 50 км ясно -46.1 -48.6 76 -46 -46 опасность
обморожения
1019.8 998.6
21 11.01 штиль 0 50 км ясно -46.9 -49.6 74 -47 -47 опасность
обморожения
1022.0 1000.8
00 12.01 штиль 0 50 км ясно -47.9 -50.6 73 -48 -48 опасность
обморожения
1024.3 1003.0 -48.2 28
03 12.01 штиль 0 50 км ясно -45.4 -47.8 77 -45 -45 опасность
обморожения
1025.5 1004.3
06 12.01 штиль 0 50 км 8/0
[Ac trans Ci fib]
-37.9 -40.9 73 -38 -38 опасность
обморожения
1025.7 1005.3
09 12.01 В 1 50 км ясно -39.4 -42.3 74 -45 -45 опасность
обморожения
1026.8 1006.2
12 12.01 штиль 0 20 км слаб. снег 10/0
[Cs]
-41.4 -44.4 72 -41 -41 опасность
обморожения
1027.5 1006.7 -37.9 0.0
15 12.01 штиль 0 20 км слаб. снег 10/0
[Cs]
-41.1 -43.8 75 -41 -41 опасность
обморожения
1026.9 1006.1
18 12.01 штиль 0 20 км слаб. снег 10/0
[Cs]
-37.9 -40.9 73 -38 -38 опасность
обморожения
1026.2 1005.8
21 12.01 штиль 0 10 км слаб. снег 10/0
[Cs]
-37.1 -40.1 73 -37 -37 опасность
обморожения
1026.0 1005.6
00 13.01 штиль 0 20 км слаб. снег 10/0
[Cs]
-39.0 -41.8 75 -39 -39 опасность
обморожения
1026.2 1005.6 -41.4 0.4 28
03 13.01 СЗ 1 20 км слаб. снег 10/0
[Ac As Cs]
-38.7 -41.4 75 -44 -44 опасность
обморожения
1026.4 1005.8
06 13.01 З 1 20 км слаб. снег 10/0
[As trans Cs]
-37.0 -39.8 75 -42 -42 опасность
обморожения
1026.3 1005.9
09 13.01 СЗ 2 20 км слаб. снег 10/0
[As trans Cs]
-37.7 -40.5 75 -46 -46 опасность
обморожения
1026.9 1006.5
12 13.01 З 2 20 км слаб. снег 10/0
[Cs]
-39.7 -42.3 76 -49 -49 опасность
обморожения
1028.0 1007.4 -37.0 0.3
15 13.01 СЗ 2 20 км слаб. снег 10/0
[Cs]
-40.0 -42.8 74 -49 -49 опасность
обморожения
1029.1 1008.2
18 13.01 СЗ 1 50 км {снег} 3/0
[Cs]
-41.2 -43.8 76 -47 -47 опасность
обморожения
1030.5 1009.6
21 13.01 СЗ 1 50 км ясно -45.9 -48.6 74 -52 -52 опасность
обморожения
1031.9 1010.6
00 14.01 50 км ясно -48.9 -51.8 71 1033.0 1011.4 -49.1 0.3 28
03 14.01 штиль 0 50 км ясно -49.9 -53.1 69 -50 -50 опасность
обморожения
1032.9 1011.3 -50.1
06 14.01 З 1 50 км ясно -47.4 -49.6 78 -53 -53 опасность
обморожения
1032.0 1010.6
09 14.01 З 1 50 км ясно -47.4 -49.6 78 -53 -53 опасность
обморожения
1032.0 1010.6
12 14.01 З 2 50 км ясно -49.4 -51.8 76 -60 -60 опасность
обморожения
1031.7 1010.1 -47.4
15 14.01 СЗ 1 50 км ясно -50.4 -53.1 73 -57 -57 опасность
обморожения
1031.4 1009.6
18 14.01 СЗ 1 50 км ясно -51.4 -54.6 68 -58 -58 опасность
обморожения
1032.2 1010.4
21 14.01 СЗ 2 50 км ясно -51.5 -54.6 69 -63 -63 опасность
обморожения
1032.8 1011.0
00 15.01 СЗ 2 50 км ясно -51.1 -53.1 79 -62 -62 опасность
обморожения
1033.4 1011.6 -52.0 28
03 15.01 СЗ 2 50 км ясно -49.5 -51.8 77 -60 -60 опасность
обморожения
1034.0 1012.4
06 15.01 СЗ 2 50 км ясно -46.8 -49.6 73 -57 -57 опасность
обморожения
1034.1 1012.5
09 15.01 З 1 50 км ясно -48.0 -50.6 74 -54 -54 опасность
обморожения
1034.6 1012.8
12 15.01 штиль 0 50 км ясно -49.8 -51.8 79 -50 -50 опасность
обморожения
1035.1 1013.3 -46.8
15 15.01 штиль 0 50 км ясно -50.3 -53.1 72 -50 -50 опасность
обморожения
1035.1 1013.2
18 15.01 штиль 0 50 км ясно -51.1 -53.1 79 -51 -51 опасность
обморожения
1034.5 1012.6
21 15.01 штиль 0 50 км ясно -51.7 -54.6 71 -52 -52 опасность
обморожения
1034.5 1012.6
00 16.01 штиль 0 50 км ясно -51.5 -54.6 69 -52 -52 опасность
обморожения
1033.8 1012.0 -52.0 28
03 16.01 штиль 0 50 км 6/0
[Cs]
-48.9 -51.8 71 -49 -49 опасность
обморожения
1032.2 1010.6
06 16.01 штиль 0 50 км 10/0
[Ac trans Cs]
-41.9 -44.4 76 -42 -42 опасность
обморожения
1030.2 1009.3
09 16.01 штиль 0 50 км 10/0
[Ac As]
-37.9 -40.9 73 -38 -38 опасность
обморожения
1028.2 1007.8
12 16.01 В 1 50 км 10/0
[Cs]
-36.4 -39.4 74 -41 -41 опасность
обморожения
1025.5 1005.1 -36.4
15 16.01 В 1 50 км 10/0
[Cs]
-35.3 -38.4 73 -40 -40 опасность
обморожения
1023.7 1003.4
18 16.01 В 1 50 км 10/0
[Cs]
-33.2 -36.3 74 -38 -38 опасность
обморожения
1021.6 1001.6
21 16.01 ЮВ 2 10 км слаб. снег 10/0
[As op Cs]
-32.4 -35.5 74 -40 -40 опасность
обморожения
1020.0 1000.0
00 17.01 ЮВ 1 20 км слаб. снег 10/0
[As op Cs]
-33.2 -35.6 79 -38 -38 опасность
обморожения
1019.2 999.2 -36.4 0.4 29
03 17.01 штиль 0 50 км {снег} 3/0
[Ac As Cs]
-36.0 -39.0 74 -36 -36 опасность
обморожения
1019.1 998.8
06 17.01 В 1 50 км {снег} 10/0
[Ac lent Cs]
-33.4 -35.6 80 -38 -38 опасность
обморожения
1017.3 997.4
09 17.01 В 1 20 км слаб. снег 10/0
[Cs]
-32.3 -34.6 80 -37 -37 опасность
обморожения
1016.7 996.8
12 17.01 В 1 20 км слаб. снег 10/0
[Cs]
-33.1 -35.4 80 -38 -38 опасность
обморожения
1016.0 996.1 -32.2 0.2
15 17.01 Ю 1 20 км слаб. снег 10/0
[Cs]
-34.0 -36.2 80 -39 -39 опасность
обморожения
1015.5 995.4
18 17.01 штиль 0 20 км слаб. снег 10/0
[Cs]
-32.9 -35.1 81 -33 -33 опасность
обморожения
1015.3 995.4
21 17.01 СЗ 1 20 км слаб. снег 10/0
[Cs]
-37.4 -40.1 76 -42 -42 опасность
обморожения
1016.4 996.2
00 18.01 С 2 50 км {снег} 3/0
[Ci fib]
-37.9 -40.9 73 -47 -47 опасность
обморожения
1017.4 997.2 -38.5 0.4 29
03 18.01 СЗ 2 50 км 3/0
[Ci fib]
-39.9 -42.8 74 -49 -49 опасность
обморожения
1019.1 998.6
06 18.01 СЗ 2 50 км 3/0
[Ci fib]
-39.9 -42.8 74 -49 -49 опасность
обморожения
1019.1 998.6
09 18.01 СЗ 2 50 км ясно -39.1 -41.8 75 -48 -48 опасность
обморожения
1020.9 1000.4
12 18.01 З 2 50 км ясно -40.7 -43.3 76 -50 -50 опасность
обморожения
1024.9 1004.1 -39.1
15 18.01 СЗ 1 50 км ясно -43.9 -46.3 77 -50 -50 опасность
обморожения
1025.5 1004.5

 

Местоположение метеостанции Чумпурук (Якутия, Россия): широта 64.23 долгота 116.90 высота над уровнем моря 139 м.

В архиве по умолчанию представлена погода в Чумпуруке за последнюю неделю. Архивные данные за месяц целиком и за предыдущие месяцы, начиная с января 2011 года, Вы можете получить, выбрав интересующий диапазон дат из раскрывающегося списка и нажав кнопку "Ввод!".


*Определитесь, кто Вы:
робот инопланетянин человек

Внимание! Время в таблицах - всемирное. Для получения местного времени необходимо прибавить поправку, которая равна 9 ч.

Смотрите также архив погоды в соседних городах и на ближайших метеорологических станциях:

Погода в Нюрбе (Якутия, Россия) (126 км)
Погода в Верхневилюйске (Якутия, Россия) (184 км)
Погода в Эйке (Якутия, Россия) (202 км)
Погода в Хабардино (Якутия, Россия) (215 км)
Погода в Крестяхе (Якутия, Россия) (222 км)
Погода в Сунтаре (Якутия, Россия) (232 км)
Погода в Вилюйске (Якутия, Россия) (235 км)
Погода в Мирном (Якутия, Россия) (244 км)
Погода в Шелагонцах (Якутия, Россия) (257 км)
Погода в Чернышевском (Якутия, Россия) (259 км)

Пояснения к столбцам:

Ветер - указаны скорость ветра в м/с - средняя за 10 мин, порывы в срок и между сроками (в фигурных скобках) и направление, откуда дует ветер: С - северный, СВ - северо-восточный, В - восточный, ЮВ - юго-восточный, Ю - южный, ЮЗ - юго-западный, З - западный, СЗ - северо-западный.
Видимость - горизонтальная дальность видимости в метрах или километрах. При видимости от 1 до 10 км при отсутствии осадков обычно наблюдается дымка, при ухудшении видимости до 1 км и менее - туман. В сухую погоду видимость может ухудшаться дымом, пылью или мглою.
Явления - указаны атмосферные явления, наблюдавшиеся в срок или в последний час перед сроком; фигурными скобками обозначены явления, наблюдавшиеся между сроками (за 1-3 часа до срока); квадратными скобками обозначены град или гололедные отложения с указанием их диаметра в мм.
Облачность - указаны через наклонную черту общая и нижняя облачность в баллах и высота нижней границы облаков в метрах; квадратными скобками обозначены формы облаков: Ci - перистые, Cs - перисто-слоистые, Cc - перисто-кучевые, Ac - высококучевые, As - высокослоистые, Sc - слоисто-кучевые, Ns - слоисто-дождевые, Cu - кучевые, Cb - кучево-дождевые. Подробнее классификацию облаков см. в Атласе облаков (PDF).
T - Температура воздуха - температура, измеренная на высоте 2 м над землей.
Td - Температура точки росы - температура, при понижении до которой содержащийся в воздухе водяной пар достигнет насыщения.
f - Относительная влажность воздуха - влажноcть воздуха, измеренная на высоте 2 м над землей.
Te - Эффективная температура - температура, которую ощущает одетый по сезону человек в тени. Характеристика душности погоды. При расчете учитывается влияние влажности воздуха и скорости ветра на теплоощущения человека.
Tes - Эффективная температура на солнце - температура, которую ощущает человек, с поправкой на солнечный нагрев. Характеристика знойности погоды. Зависит от высоты солнца над горизонтом, облачности и скорости ветра. Ночью, в пасмурную погоду, а также при ветре 12 м/с и более поправка равна нулю.
P - Атмосферное давление - приведенное к уровню моря атмосферное давление.
Po - Атмосферное давление - измеренное на уровне метеостанции атмосферное давление.
Tmin - Минимальная температура - минимум температуры воздуха на высоте 2 м над землей.
Tmax - Максимальная температура - максимум температуры воздуха на высоте 2 м над землей.
R - Количество осадков - Количество выпавших осадков за период времени, мм. При наведении курсора мыши на число - период времени, за который выпало указанное количество осадков.
R24 - Количество осадков - Количество выпавших осадков за 24 часа, мм.
S - Снежный покров - Высота снежного покрова, см. При наведении курсора мыши на число - состояние снежного покрова и степень покрытия местности в баллах.